Temperature
6 6 6 6 5 5 5 5 4 4 4 4 4 5 5 5 5 4 4 4 4 4 4 4 4 4 4 4 4 4 4 4 4 4 4 4 4 4
5 5 5 5 5 5 5 5 4 4 3 4 4 4 4 4 4 4 4 4 4 4 4 4 4 4 4 3 3 3 3 3 3 3 3 3 3 3
5 5 5 4 4 4 4 4 4 4 3 3 3 3 4 4 4 4 3 3 3 3 3 3 3 3 3 3 3 3 3 3 3 3 3 3 3 3
4 4 4 4 4 4 4 4 3 3 3 3 3 3 3 3 3 3 3 3 3 3 3 3 3 3 3 3 3 3 3 3 3 2 2 2 2 2
4 4 4 4 3 3 3 3 3 3 3 2 2 3 3 3 3 3 2 2 2 2 2 2 2 2 2 2 2 2 2 2 2 2 2 2 2 2
3 3 3 3 3 3 2 3 2 2 2 2 2 2 2 2 2 2 2 2 2 2 2 2 2 2 2 2 2 1 1 1 1 1 1 1 1 1
2 2 2 2 2 2 2 2 2 2 2 2 2 2 2 2 2 2 1 1 1 1 1 1 1 1 1 1 1 1 1 1 1 1 1 1 1 1
2 2 2 2 2 2 2 2 2 2 2 2 1 1 1 1 1 1 1 1 1 1 1 1 1 1 1 1 1 1 1 0 0 0 0 0 0 0
1 1 1 1 1 1 1 1 1 1 1 1 1 1 1 1 1 1 0 0 0 0 0 0 0 0 0 0 0 -0 -0 -0 -0 -0 -0 0 -0 -0
1 1 1 1 1 1 1 1 1 1 1 1 1 1 1 1 0 0 0 -0 -0 -0 -0 -0 -0 -0 -0 -0 -0 -1 -1 -1 -1 -0 -0 -0 -0 -0
0 0 0 0 0 0 0 0 0 0 0 0 0 0 0 0 0 -0 -0 -1 -1 -1 -1 -1 -1 -1 -0 -0 -1 -1 -1 -1 -1 -1 -1 -1 -1 -1
-0 0 0 0 0 0 -0 -0 -0 -0 -0 -0 -0 -0 -0 -0 -0 -0 -1 -1 -1 -1 -1 -2 -2 -2 -2 -1 -1 -1 -1 -1 -1 -1 -1 -1 -1 -1
-0 -0 -0 -0 -0 -0 -0 -0 -0 -1 -1 -1 -1 -1 -1 -1 -1 -1 -1 -1 -1 -2 -2 -2 -2 -2 -2 -2 -2 -2 -2 -2 -2 -2 -2 -2 -2 -2
-1 -0 -0 -0 -0 -1 -1 -1 -1 -1 -1 -1 -1 -1 -1 -1 -1 -1 -1 -2 -2 -2 -2 -2 -2 -3 -3 -3 -3 -2 -2 -2 -2 -2 -2 -2 -2 -2
-1 -1 -1 -1 -1 -1 -1 -1 -1 -1 -2 -1 -1 -1 -1 -2 -2 -2 -2 -2 -2 -2 -2 -2 -3 -3 -3 -3 -3 -3 -3 -3 -3 -3 -3 -3 -3 -2
-2 -2 -2 -2 -2 -2 -2 -2 -2 -2 -2 -2 -2 -2 -2 -2 -2 -2 -2 -2 -2 -2 -2 -3 -3 -3 -3 -3 -3 -3 -3 -3 -3 -3 -3 -3 -3 -3
-2 -2 -2 -2 -2 -2 -2 -2 -2 -2 -2 -2 -2 -3 -3 -3 -3 -2 -2 -3 -3 -3 -3 -3 -3 -3 -3 -3 -3 -3 -3 -4 -4 -4 -4 -3 -3 -3
-3 -3 -3 -3 -3 -3 -3 -3 -3 -3 -3 -3 -3 -3 -3 -3 -3 -3 -3 -3 -3 -3 -3 -3 -3 -3 -4 -4 -4 -4 -4 -4 -4 -4 -4 -4 -4 -4
-3 -3 -3 -4 -4 -4 -4 -3 -3 -3 -3 -3 -3 -3 -3 -3 -3 -4 -4 -4 -3 -3 -4 -4 -4 -4 -4 -4 -4 -4 -4 -4 -4 -4 -4 -4 -4 -4
-4 -4 -4 -4 -4 -4 -4 -4 -4 -4 -4 -4 -4 -4 -4 -4 -4 -4 -4 -4 -4 -4 -4 -4 -4 -4 -4 -5 -4 -4 -4 -4 -5 -5 -5 -4 -4 -4
-4 -4 -4 -4 -4 -4 -4 -4 -4 -4 -4 -4 -4 -4 -4 -4 -4 -4 -4 -4 -4 -4 -4 -4 -4 -4 -5 -5 -5 -4 -4 -5 -5 -5 -5 -5 -5 -5
-4 -4 -4 -4 -5 -5 -5 -5 -5 -5 -4 -4 -4 -4 -4 -4 -4 -4 -4 -5 -5 -5 -5 -5 -4 -5 -5 -5 -5 -5 -5 -5 -5 -5 -5 -5 -5 -5
-5 -5 -5 -5 -5 -5 -5 -5 -5 -5 -5 -5 -5 -5 -5 -5 -5 -5 -5 -5 -5 -5 -5 -5 -5 -5 -5 -5 -5 -5 -5 -5 -5 -5 -5 -5 -5 -5
Wind_Speed
4 4 4 3 3 3 3 4 4 4 4 3 2 2 3 4 4 5 5 6 6 7 7 7 8 8 9 9 9 9 9 9 10 10 11 11 12 11
4 5 4 3 3 3 3 3 4 4 5 3 3 3 3 3 4 5 6 6 6 6 7 7 8 8 8 8 8 9 9 8 9 10 10 11 11 11
4 4 5 4 3 3 3 3 3 4 5 4 3 3 3 4 4 5 5 5 5 6 7 7 7 8 8 8 8 8 8 8 8 9 10 11 11 10
5 4 4 3 4 3 3 4 3 3 4 5 3 3 4 4 4 4 4 5 5 6 6 7 7 7 7 7 7 7 8 8 8 8 9 10 11 10
5 5 5 4 4 3 4 4 3 3 3 4 3 3 3 3 4 4 4 4 5 5 5 6 6 7 7 7 7 7 7 8 8 8 9 10 10 10
5 5 5 5 5 4 4 4 4 3 3 3 3 3 3 3 3 3 4 4 4 4 5 6 6 6 6 6 6 7 8 8 9 9 9 10 10 10
4 5 5 5 5 4 4 4 4 3 3 3 3 3 2 2 3 3 4 4 4 3 4 4 4 4 4 5 6 7 8 9 9 9 9 9 10 11
4 4 4 4 5 5 5 4 5 5 5 4 3 4 4 4 4 3 3 4 4 3 4 5 4 4 4 4 6 7 8 8 8 9 10 10 10 11
5 4 4 4 4 5 5 5 5 5 6 5 5 6 5 4 4 4 4 5 5 4 4 5 4 4 4 5 7 7 8 8 8 9 9 10 10 10
5 5 5 5 4 5 4 5 5 5 6 6 6 6 5 5 5 5 5 5 5 3 3 4 4 5 5 5 6 7 7 7 8 9 9 9 10 11
5 5 5 5 5 5 5 5 5 5 5 7 7 6 6 6 5 3 3 3 4 3 2 2 3 4 4 4 4 6 7 7 8 8 9 9 10 9
5 5 6 6 6 6 6 5 6 5 4 4 5 5 5 5 6 5 4 4 3 3 2 2 2 3 3 3 3 4 5 7 8 9 9 9 9 7
5 5 5 6 7 8 7 6 6 5 4 4 4 4 3 3 4 5 5 4 4 4 2 2 2 2 3 3 4 4 4 5 6 6 7 8 9 7
6 5 5 6 7 7 6 6 6 5 4 4 4 4 4 3 4 4 5 5 5 5 5 4 3 3 3 4 4 3 4 4 5 5 5 7 7 8
5 5 5 6 6 6 6 6 5 4 4 4 5 5 4 4 3 3 3 3 3 3 4 4 4 4 4 4 4 4 4 4 4 4 5 5 5 5
4 5 5 5 4 4 4 5 5 5 5 5 5 4 3 3 3 2 2 2 2 2 3 4 4 4 4 5 4 5 4 3 4 4 5 5 5 5
3 3 3 3 4 4 4 4 4 4 5 4 4 3 3 3 3 2 2 2 3 3 2 2 3 3 4 4 4 4 4 4 4 4 4 5 5 5
3 3 4 4 5 5 4 4 4 4 5 4 4 4 4 4 3 2 2 3 3 3 2 2 1 2 2 2 4 5 4 4 4 4 4 5 5 5
4 4 5 5 5 5 5 5 5 4 4 4 4 4 4 4 3 3 3 3 3 3 3 2 2 2 3 4 2 3 4 4 4 4 4 4 5 6
4 5 5 5 5 5 5 5 4 4 4 4 4 4 4 4 4 4 4 4 4 3 3 3 3 3 4 3 3 3 4 4 4 4 4 4 5 7
4 5 5 5 5 4 4 4 4 4 4 4 4 4 4 4 4 4 4 5 4 4 4 4 3 3 2 1 2 3 3 4 4 4 4 4 5 4
5 5 5 5 5 4 4 4 4 4 4 4 4 4 4 4 5 5 4 4 4 4 4 2 1 1 2 3 3 3 4 3 3 4 5 5 3 3
5 5 4 4 4 4 4 4 5 4 4 4 4 4 4 4 4 4 4 4 4 3 2 2 1 1 2 3 3 3 4 4 3 3 4 5 8 10
Wind_Direction
203 206 217 225 230 234 240 241 238 251 257 259 256 257 273 277 284 279 285 291 295 299 301 301 303 305 305 306 308 307 304 304 302 304 307 309 309 310
204 204 212 221 223 227 234 241 243 248 257 259 273 283 276 279 281 282 288 289 284 292 297 300 302 304 304 303 305 307 306 306 303 305 307 309 310 309
204 206 214 219 218 224 231 235 241 246 254 266 282 281 278 285 292 293 292 289 287 292 297 300 302 303 302 302 303 307 310 309 310 310 312 311 311 307
208 211 217 220 219 223 225 230 238 250 256 264 279 284 288 288 296 297 296 293 293 294 295 299 303 305 305 304 305 308 312 313 311 314 314 316 317 313
212 215 217 220 226 228 228 231 236 248 257 257 270 286 294 293 297 298 293 295 300 296 292 297 301 305 305 304 306 310 312 313 313 313 313 314 317 315
214 217 219 220 227 229 232 233 235 239 246 244 260 275 284 294 283 292 298 303 302 294 293 293 295 298 301 306 308 313 314 314 314 314 309 309 312 312
217 221 223 228 234 232 234 236 233 234 238 240 253 271 283 286 276 286 291 300 296 287 300 296 294 294 296 298 301 307 308 310 311 310 309 309 310 310
219 222 225 226 226 231 243 241 236 233 234 238 250 254 260 270 279 283 289 296 290 293 297 294 288 290 291 293 305 305 306 307 308 310 310 310 310 308
223 225 227 230 232 235 235 232 236 242 243 245 247 249 253 252 258 268 268 269 277 289 285 280 288 288 289 290 295 294 301 306 308 309 310 311 312 314
228 227 228 231 231 236 238 239 242 245 247 247 252 254 253 250 244 255 268 278 291 281 273 273 289 292 293 283 284 286 294 302 305 307 309 309 310 311
232 233 232 233 230 229 237 242 250 257 255 253 259 258 257 250 245 250 256 267 281 282 281 278 293 304 294 280 280 288 291 293 299 306 309 309 311 309
234 233 232 237 239 231 236 238 245 255 255 255 256 254 250 241 232 234 236 243 264 268 256 262 280 310 292 285 293 296 294 294 295 298 303 308 313 308
236 236 234 233 239 237 237 239 246 253 252 252 256 258 253 245 240 241 242 239 243 255 244 245 267 278 275 290 292 291 295 300 298 298 297 304 308 309
239 241 241 234 235 237 238 240 243 244 245 246 249 253 252 250 250 251 252 255 257 259 243 238 253 257 276 289 287 293 299 300 302 304 307 311 309 309
246 247 249 238 235 238 237 237 238 239 239 241 246 253 256 252 248 253 259 267 283 267 234 247 255 254 261 271 283 288 296 294 290 300 306 309 309 312
247 242 238 235 236 244 248 244 241 239 240 244 247 257 258 249 241 243 247 250 275 281 264 261 257 255 264 269 271 275 283 282 289 298 304 304 305 306
236 239 239 237 239 242 246 247 244 240 239 241 241 248 252 247 246 241 239 241 253 265 275 284 282 281 272 269 272 271 278 288 291 299 306 304 304 302
233 230 233 237 240 244 247 250 247 244 244 244 242 241 243 241 241 239 234 237 249 253 255 265 283 303 293 271 250 267 278 284 292 295 296 299 302 308
235 234 236 239 244 248 249 249 251 249 244 242 242 241 242 240 237 236 231 239 251 254 249 238 236 245 273 285 275 246 279 292 293 295 294 293 296 305
239 238 240 242 245 248 252 253 251 248 241 241 240 237 235 236 234 232 229 236 244 251 248 237 234 239 251 271 278 284 276 280 287 290 298 299 297 296
240 241 244 248 250 249 249 251 251 247 245 243 239 235 231 233 236 234 235 237 239 242 242 244 249 256 278 276 278 286 297 285 279 282 296 301 304 306
239 243 246 249 249 247 246 246 250 249 245 242 242 236 232 232 235 234 233 233 239 243 250 258 249 232 242 247 268 283 298 312 308 291 279 271 283 294
241 244 245 243 244 244 245 245 247 248 245 244 245 244 237 234 235 234 232 232 236 234 234 235 239 252 264 264 267 277 292 307 313 315 308 299 281 274
Height
1498 1499 1500 1501 1501 1502 1502 1503 1504 1503 1502 1502 1501 1500 1500 1499 1498 1498 1497 1496 1495 1494 1493 1492 1490 1489 1488 1487 1485 1483 1482 1480 1479 1477 1476 1474 1473 1471
1494 1495 1496 1497 1498 1498 1499 1499 1499 1500 1499 1498 1497 1497 1497 1496 1495 1494 1493 1493 1492 1490 1489 1488 1487 1486 1484 1483 1481 1480 1478 1477 1475 1474 1472 1470 1469 1467
1490 1491 1492 1493 1494 1495 1495 1495 1496 1496 1495 1495 1494 1494 1493 1493 1492 1491 1490 1489 1488 1487 1486 1485 1483 1482 1481 1479 1478 1476 1475 1473 1472 1470 1468 1466 1464 1463
1486 1487 1488 1489 1490 1491 1491 1492 1492 1492 1493 1491 1491 1490 1490 1489 1489 1488 1487 1486 1485 1484 1482 1481 1480 1479 1477 1476 1474 1473 1471 1469 1468 1466 1464 1463 1461 1459
1483 1484 1485 1485 1486 1487 1487 1488 1489 1489 1489 1488 1487 1487 1486 1486 1485 1485 1484 1483 1481 1480 1479 1478 1476 1475 1474 1472 1471 1469 1468 1466 1465 1463 1461 1459 1457 1455
1479 1480 1481 1482 1482 1483 1484 1484 1485 1485 1485 1485 1484 1484 1483 1483 1482 1481 1480 1479 1478 1477 1476 1474 1473 1472 1470 1469 1467 1466 1464 1463 1461 1459 1458 1456 1454 1452
1476 1476 1477 1477 1478 1479 1480 1481 1481 1481 1481 1481 1481 1480 1480 1479 1479 1478 1477 1476 1475 1474 1473 1471 1470 1468 1467 1465 1464 1462 1461 1459 1458 1456 1454 1452 1450 1448
1472 1472 1473 1474 1475 1475 1476 1477 1478 1478 1478 1477 1477 1477 1476 1476 1476 1475 1474 1473 1471 1471 1470 1468 1467 1465 1463 1462 1461 1459 1457 1456 1454 1452 1450 1449 1447 1445
1468 1469 1470 1470 1471 1472 1472 1473 1473 1474 1474 1474 1473 1473 1473 1473 1472 1472 1471 1470 1469 1468 1467 1464 1463 1461 1460 1458 1457 1456 1454 1452 1450 1448 1446 1445 1443 1441
1465 1465 1466 1467 1467 1468 1468 1468 1469 1469 1470 1470 1470 1469 1469 1469 1468 1468 1467 1466 1465 1464 1463 1461 1459 1458 1456 1455 1453 1452 1450 1449 1447 1445 1443 1441 1439 1437
1461 1462 1462 1463 1464 1464 1465 1464 1464 1465 1466 1466 1466 1465 1465 1465 1464 1464 1463 1463 1461 1461 1460 1458 1456 1454 1453 1452 1450 1449 1447 1445 1443 1442 1440 1438 1436 1434
1457 1457 1458 1459 1460 1460 1460 1460 1460 1461 1461 1461 1461 1461 1461 1460 1460 1460 1459 1459 1457 1457 1456 1455 1453 1452 1450 1448 1447 1446 1444 1442 1440 1438 1437 1435 1433 1430
1453 1453 1454 1455 1455 1456 1456 1456 1457 1457 1457 1457 1457 1456 1456 1456 1455 1456 1455 1455 1454 1453 1453 1452 1451 1449 1448 1445 1443 1442 1441 1439 1437 1435 1433 1432 1429 1427
1448 1449 1450 1450 1451 1452 1452 1452 1453 1453 1453 1453 1452 1451 1451 1451 1451 1451 1452 1451 1451 1450 1450 1449 1448 1446 1445 1443 1441 1439 1438 1436 1434 1432 1431 1429 1427 1425
1444 1445 1446 1446 1447 1447 1447 1448 1448 1448 1448 1448 1447 1447 1447 1447 1447 1447 1447 1447 1447 1446 1446 1445 1444 1443 1442 1440 1438 1436 1435 1433 1432 1430 1428 1426 1424 1421
1440 1441 1441 1442 1442 1442 1442 1443 1443 1443 1443 1443 1443 1443 1443 1443 1443 1443 1443 1443 1442 1442 1442 1441 1440 1439 1438 1437 1436 1434 1433 1431 1429 1428 1426 1424 1421 1419
1436 1436 1437 1437 1437 1437 1438 1438 1438 1438 1438 1438 1438 1438 1438 1439 1439 1439 1439 1439 1438 1438 1438 1438 1437 1436 1435 1434 1433 1431 1430 1428 1427 1425 1423 1421 1419 1417
1432 1432 1432 1432 1432 1432 1433 1433 1433 1433 1433 1434 1434 1434 1434 1434 1434 1434 1435 1435 1435 1434 1434 1434 1433 1432 1432 1431 1431 1429 1427 1426 1424 1423 1421 1418 1416 1415
1427 1427 1427 1428 1428 1428 1428 1429 1429 1429 1429 1429 1430 1430 1430 1430 1431 1430 1430 1431 1431 1431 1431 1430 1430 1429 1428 1427 1427 1426 1425 1423 1421 1420 1418 1416 1414 1412
1422 1423 1423 1423 1424 1424 1424 1424 1424 1424 1425 1425 1425 1426 1426 1426 1426 1426 1427 1427 1427 1427 1427 1427 1426 1426 1426 1425 1424 1423 1422 1421 1419 1417 1416 1414 1412 1410
1418 1418 1419 1419 1419 1420 1420 1420 1420 1420 1420 1421 1421 1422 1422 1422 1422 1423 1423 1423 1423 1423 1423 1423 1423 1423 1423 1423 1422 1420 1420 1418 1417 1416 1414 1412 1409 1407
1414 1414 1414 1414 1415 1415 1416 1416 1416 1416 1416 1417 1417 1418 1418 1418 1419 1419 1419 1419 1419 1419 1420 1420 1419 1419 1419 1419 1418 1417 1416 1416 1415 1413 1412 1410 1408 1406
1410 1410 1410 1410 1410 1411 1411 1411 1412 1412 1413 1413 1413 1414 1414 1414 1415 1415 1416 1416 1416 1416 1416 1416 1416 1416 1416 1416 1416 1415 1414 1413 1412 1411 1410 1408 1407 1405